| time (UTC) | temp C | wind direction | speed KPH | gust KPH | rain 1hr cm | rain 24hr cm | rain mn cm | humidity % | barometer mb |
| 20260506215650 | 7 | 116 | 0.0 | 0.0 | 0.00 | 0.05 | 0.05 | 80 | 1011.5 |
| 20260506214650 | 7 | 63 | 0.0 | 0.0 | 0.00 | 0.05 | 0.05 | 80 | 1011.4 |
| 20260506213650 | 7 | 87 | 1.6 | 1.6 | 0.00 | 0.05 | 0.05 | 80 | 1011.3 |
| 20260506212650 | 7 | 232 | 0.0 | 0.0 | 0.00 | 0.05 | 0.05 | 79 | 1011.4 |
| 20260506211650 | 8 | 232 | 0.0 | 3.2 | 0.00 | 0.05 | 0.05 | 79 | 1011.3 |
| 20260506210650 | 8 | 87 | 0.0 | 3.2 | 0.00 | 0.05 | 0.05 | 79 | 1011.3 |
| 20260506205650 | 8 | 158 | 3.2 | 4.8 | 0.00 | 0.05 | 0.05 | 80 | 1011.3 |
| 20260506204650 | 7 | 293 | 0.0 | 0.0 | 0.00 | 0.05 | 0.05 | 82 | 1011.2 |
| 20260506203650 | 7 | 293 | 0.0 | 1.6 | 0.00 | 0.05 | 0.05 | 83 | 1011.2 |
| 20260506202650 | 8 | 319 | 0.0 | 0.0 | 0.00 | 0.05 | 0.05 | 78 | 1011.2 |
| 20260506201650 | 8 | 150 | 0.0 | 0.0 | 0.00 | 0.05 | 0.05 | 75 | 1011.1 |
| 20260506200650 | 9 | 165 | 0.0 | 0.0 | 0.00 | 0.05 | 0.05 | 74 | 1010.9 |
| 20260506195650 | 9 | 165 | 0.0 | 0.0 | 0.00 | 0.05 | 0.05 | 73 | 1010.9 |
| 20260506194650 | 10 | 165 | 0.0 | 3.2 | 0.00 | 0.05 | 0.05 | 72 | 1010.9 |
| 20260506193650 | 10 | 45 | 0.0 | 0.0 | 0.00 | 0.05 | 0.05 | 71 | 1010.7 |
| 20260506192650 | 10 | 45 | 0.0 | 1.6 | 0.00 | 0.05 | 0.05 | 69 | 1010.6 |
| 20260506191650 | 10 | 80 | 0.0 | 1.6 | 0.00 | 0.05 | 0.05 | 69 | 1010.5 |
| 20260506190650 | 11 | 146 | 0.0 | 0.0 | 0.00 | 0.05 | 0.05 | 69 | 1010.5 |
| 20260506185650 | 11 | 146 | 0.0 | 0.0 | 0.00 | 0.05 | 0.05 | 65 | 1010.1 |
| 20260506184650 | 12 | 160 | 0.0 | 4.8 | 0.00 | 0.05 | 0.05 | 62 | 1010.0 |
| 20260506183650 | 14 | 160 | 0.0 | 1.6 | 0.00 | 0.05 | 0.05 | 58 | 1009.9 |
| 20260506182650 | 17 | 147 | 0.0 | 1.6 | 0.00 | 0.05 | 0.05 | 51 | 1009.8 |
| 20260506181650 | 22 | 137 | 3.2 | 4.8 | 0.00 | 0.05 | 0.05 | 44 | 1009.7 |
| 20260506180650 | 23 | 151 | 0.0 | 0.0 | 0.00 | 0.05 | 0.05 | 44 | 1009.7 |
| 20260506175650 | 22 | 105 | 0.0 | 6.4 | 0.00 | 0.05 | 0.05 | 49 | 1009.5 |
| 20260506174650 | 18 | 306 | 0.0 | 3.2 | 0.00 | 0.05 | 0.05 | 59 | 1009.4 |
| 20260506173650 | 11 | 282 | 3.2 | 14.5 | 0.00 | 0.05 | 0.05 | 81 | 1009.4 |
| 20260506172650 | 8 | 267 | 0.0 | 6.4 | 0.00 | 0.05 | 0.05 | 86 | 1009.3 |
| 20260506171650 | 8 | 320 | 8.0 | 8.0 | 0.00 | 0.05 | 0.05 | 84 | 1009.3 |
| 20260506170650 | 10 | 336 | 4.8 | 9.7 | 0.00 | 0.05 | 0.05 | 77 | 1009.1 |
| 20260506165650 | 11 | 4 | 1.6 | 6.4 | 0.00 | 0.05 | 0.05 | 67 | 1009.1 |
| 20260506164650 | 11 | 286 | 0.0 | 9.7 | 0.00 | 0.05 | 0.05 | 71 | 1009.0 |
| 20260506163650 | 15 | 324 | 11.3 | 14.5 | 0.00 | 0.05 | 0.05 | 46 | 1008.7 |
| 20260506162650 | 21 | 167 | 0.0 | 4.8 | 0.00 | 0.05 | 0.05 | 44 | 1008.7 |
| 20260506161650 | 17 | 188 | 0.0 | 8.0 | 0.00 | 0.05 | 0.05 | 76 | 1008.7 |
| 20260506160650 | 10 | 133 | 4.8 | 11.3 | 0.03 | 0.05 | 0.05 | 81 | 1008.6 |
| 20260506155650 | 8 | 225 | 4.8 | 9.7 | 0.05 | 0.05 | 0.05 | 84 | 1008.6 |
| 20260506154650 | 7 | 261 | 0.0 | 9.7 | 0.05 | 0.05 | 0.05 | 83 | 1008.7 |
| 20260506153650 | 7 | 334 | 6.4 | 12.9 | 0.05 | 0.05 | 0.05 | 83 | 1008.7 |
| 20260506152650 | 7 | 136 | 8.0 | 20.9 | 0.05 | 0.05 | 0.05 | 85 | 1008.5 |
| 20260506151650 | 7 | 157 | 12.9 | 17.7 | 0.05 | 0.05 | 0.05 | 86 | 1008.3 |
| 20260506150650 | 7 | 164 | 17.7 | 22.5 | 0.03 | 0.03 | 0.03 | 84 | 1008.5 |
| 20260506145650 | 8 | 129 | 12.9 | 29.0 | 0.00 | 0.00 | 0.00 | 78 | 1007.8 |
| 20260506144650 | 10 | 143 | 12.9 | 27.4 | 0.00 | 0.00 | 0.00 | 71 | 1007.8 |
| 20260506143650 | 11 | 147 | 16.1 | 17.7 | 0.00 | 0.00 | 0.00 | 71 | 1007.6 |
| 20260506142650 | 11 | 140 | 14.5 | 16.1 | 0.00 | 0.00 | 0.00 | 70 | 1007.6 |
| 20260506141650 | 11 | 274 | 12.9 | 12.9 | 0.00 | 0.00 | 0.00 | 69 | 1007.6 |
| 20260506140650 | 11 | 265 | 6.4 | 14.5 | 0.00 | 0.00 | 0.00 | 79 | 1007.9 |
| 20260506135650 | 12 | 329 | 6.4 | 12.9 | 0.00 | 0.00 | 0.00 | 77 | 1007.6 |
| 20260506134650 | 14 | 317 | 12.9 | 14.5 | 0.00 | 0.00 | 0.00 | 64 | 1007.4 |
| 20260506133650 | 14 | 347 | 4.8 | 6.4 | 0.00 | 0.00 | 0.00 | 65 | 1007.4 |
| 20260506132650 | 16 | 327 | 4.8 | 8.0 | 0.00 | 0.00 | 0.00 | 62 | 1007.3 |
| 20260506131651 | 15 | 305 | 0.0 | 4.8 | 0.00 | 0.00 | 0.00 | 66 | 1007.3 |
| 20260506130651 | 15 | 133 | 0.0 | 4.8 | 0.00 | 0.00 | 0.00 | 67 | 1007.2 |
| 20260506125651 | 15 | 192 | 0.0 | 3.2 | 0.00 | 0.00 | 0.00 | 61 | 1007.2 |
| 20260506124651 | 15 | 104 | 0.0 | 11.3 | 0.00 | 0.00 | 0.00 | 71 | 1007.0 |
| 20260506123651 | 13 | 149 | 1.6 | 1.6 | 0.00 | 0.00 | 0.00 | 74 | 1007.0 |
| 20260506122651 | 13 | 317 | 1.6 | 6.4 | 0.00 | 0.00 | 0.00 | 70 | 1007.1 |
| 20260506121651 | 14 | 26 | 0.0 | 1.6 | 0.00 | 0.00 | 0.00 | 72 | 1007.0 |
| 20260506120651 | 13 | 331 | 1.6 | 6.4 | 0.00 | 0.00 | 0.00 | 76 | 1006.7 |
| 20260506115651 | 12 | 67 | 6.4 | 11.3 | 0.00 | 0.00 | 0.00 | 76 | 1007.0 |
| 20260506114651 | 11 | 286 | 1.6 | 9.7 | 0.00 | 0.00 | 0.00 | 79 | 1007.2 |
| 20260506113651 | 11 | 326 | 4.8 | 14.5 | 0.00 | 0.00 | 0.00 | 78 | 1007.2 |
| 20260506112651 | 11 | 322 | 1.6 | 6.4 | 0.00 | 0.00 | 0.00 | 78 | 1007.1 |
| 20260506111651 | 11 | 119 | 11.3 | 12.9 | 0.00 | 0.00 | 0.00 | 79 | 1006.7 |
| 20260506110651 | 11 | 286 | 0.0 | 9.7 | 0.00 | 0.00 | 0.00 | 81 | 1006.9 |
| 20260506105651 | 11 | 333 | 4.8 | 9.7 | 0.00 | 0.00 | 0.00 | 83 | 1006.7 |
| 20260506104651 | 11 | 336 | 6.4 | 11.3 | 0.00 | 0.00 | 0.00 | 84 | 1006.7 |
| 20260506103651 | 11 | 348 | 6.4 | 11.3 | 0.00 | 0.00 | 0.00 | 85 | 1006.9 |
| 20260506102651 | 11 | 0 | 1.6 | 4.8 | 0.00 | 0.00 | 0.00 | 74 | 1006.9 |
| 20260506101651 | 11 | 309 | 3.2 | 8.0 | 0.00 | 0.00 | 0.00 | 71 | 1007.1 |
| 20260506100651 | 12 | 300 | 0.0 | 1.6 | 0.00 | 0.00 | 0.00 | 74 | 1007.2 |
| 20260506095651 | 11 | 66 | 3.2 | 3.2 | 0.00 | 0.00 | 0.00 | 78 | 1007.1 |
| 20260506094651 | 11 | 327 | 4.8 | 9.7 | 0.00 | 0.00 | 0.00 | 77 | 1007.6 |
| 20260506093651 | 11 | 317 | 3.2 | 8.0 | 0.00 | 0.00 | 0.00 | 77 | 1007.2 |
| 20260506092651 | 11 | 326 | 11.3 | 11.3 | 0.00 | 0.00 | 0.00 | 74 | 1007.2 |
| 20260506091651 | 11 | 317 | 9.7 | 17.7 | 0.00 | 0.00 | 0.00 | 74 | 1007.0 |
| 20260506090651 | 11 | 307 | 9.7 | 12.9 | 0.00 | 0.00 | 0.00 | 75 | 1007.0 |
| 20260506085651 | 10 | 291 | 4.8 | 12.9 | 0.00 | 0.00 | 0.00 | 75 | 1007.0 |
| 20260506084651 | 10 | 330 | 4.8 | 12.9 | 0.00 | 0.00 | 0.00 | 76 | 1007.2 |
| 20260506083651 | 11 | 338 | 4.8 | 14.5 | 0.00 | 0.00 | 0.00 | 75 | 1007.1 |
| 20260506082651 | 11 | 330 | 1.6 | 3.2 | 0.00 | 0.00 | 0.00 | 77 | 1007.0 |
| 20260506081651 | 10 | 330 | 1.6 | 6.4 | 0.00 | 0.00 | 0.00 | 79 | 1007.3 |
| 20260506080651 | 10 | 33 | 0.0 | 8.0 | 0.00 | 0.00 | 0.00 | 79 | 1007.2 |
| 20260506072651 | 10 | 336 | 3.2 | 6.4 | 0.00 | 0.00 | 0.00 | 78 | 1007.1 |
| 20260506071651 | 10 | 345 | 0.0 | 6.4 | 0.00 | 0.00 | 0.00 | 76 | 1007.1 |
| 20260506070651 | 10 | 278 | 0.0 | 4.8 | 0.00 | 0.00 | 0.00 | 77 | 1007.1 |
| 20260506061651 | 10 | 136 | 3.2 | 4.8 | 0.00 | 0.00 | 0.00 | 76 | 1007.2 |
| 20260506060651 | 10 | 115 | 0.0 | 1.6 | 0.00 | 0.00 | 0.00 | 77 | 1007.3 |
| 20260506050652 | 8 | 149 | 4.8 | 4.8 | 0.00 | 0.00 | 0.00 | 79 | 1007.4 |
| 20260506044652 | 8 | 156 | 1.6 | 4.8 | 0.00 | 0.00 | 0.00 | 80 | 1007.7 |
| 20260506043652 | 8 | 157 | 4.8 | 6.4 | 0.00 | 0.00 | 0.00 | 80 | 1007.7 |
| 20260506042652 | 8 | 149 | 3.2 | 4.8 | 0.00 | 0.00 | 0.00 | 80 | 1007.8 |
| 20260506041652 | 8 | 158 | 3.2 | 6.4 | 0.00 | 0.00 | 0.00 | 80 | 1007.9 |
| 20260506040652 | 8 | 146 | 6.4 | 6.4 | 0.00 | 0.00 | 0.00 | 80 | 1008.0 |
| 20260506035652 | 8 | 324 | 0.0 | 0.0 | 0.00 | 0.00 | 0.00 | 81 | 1008.3 |
| 20260506034652 | 8 | 324 | 0.0 | 0.0 | 0.00 | 0.00 | 0.00 | 78 | 1008.4 |
| 20260506033652 | 8 | 324 | 0.0 | 0.0 | 0.00 | 0.00 | 0.00 | 79 | 1008.6 |
| 20260506032652 | 8 | 324 | 0.0 | 0.0 | 0.00 | 0.00 | 0.00 | 79 | 1008.6 |
| 20260506031652 | 8 | 324 | 0.0 | 1.6 | 0.00 | 0.00 | 0.00 | 78 | 1008.7 |
| 20260506030652 | 8 | 139 | 0.0 | 0.0 | 0.00 | 0.00 | 0.00 | 77 | 1008.7 |
| 20260506025652 | 8 | 139 | 0.0 | 0.0 | 0.00 | 0.00 | 0.00 | 77 | 1008.7 |
| 20260506024652 | 8 | 139 | 0.0 | 0.0 | 0.00 | 0.00 | 0.00 | 77 | 1009.1 |
| 20260506023652 | 8 | 139 | 0.0 | 0.0 | 0.00 | 0.00 | 0.00 | 78 | 1009.2 |
| 20260506022652 | 8 | 139 | 0.0 | 0.0 | 0.00 | 0.00 | 0.00 | 78 | 1009.4 |
| 20260506021652 | 8 | 139 | 0.0 | 0.0 | 0.00 | 0.00 | 0.00 | 79 | 1009.4 |
| 20260506020652 | 8 | 139 | 0.0 | 0.0 | 0.00 | 0.00 | 0.00 | 77 | 1009.4 |
| 20260506015652 | 8 | 139 | 0.0 | 3.2 | 0.00 | 0.00 | 0.00 | 77 | 1009.5 |
| 20260506014652 | 8 | 147 | 3.2 | 3.2 | 0.00 | 0.00 | 0.00 | 77 | 1009.5 |
| 20260506013652 | 8 | 81 | 0.0 | 0.0 | 0.00 | 0.00 | 0.00 | 77 | 1009.5 |
| 20260506012652 | 8 | 81 | 0.0 | 0.0 | 0.00 | 0.00 | 0.00 | 78 | 1009.9 |
| 20260506011652 | 8 | 81 | 0.0 | 0.0 | 0.00 | 0.00 | 0.00 | 78 | 1009.8 |
| 20260506010652 | 8 | 147 | 0.0 | 0.0 | 0.00 | 0.00 | 0.00 | 78 | 1009.9 |
| 20260506005652 | 8 | 147 | 0.0 | 0.0 | 0.00 | 0.00 | 0.00 | 78 | 1010.0 |
| 20260506004652 | 8 | 156 | 3.2 | 4.8 | 0.00 | 0.00 | 0.00 | 77 | 1009.9 |
| 20260506003652 | 8 | 172 | 0.0 | 0.0 | 0.00 | 0.00 | 0.00 | 77 | 1009.8 |
| 20260506002652 | 8 | 147 | 1.6 | 4.8 | 0.00 | 0.00 | 0.00 | 77 | 1010.2 |
| 20260506001652 | 8 | 133 | 0.0 | 0.0 | 0.00 | 0.00 | 0.00 | 78 | 1010.4 |
| 20260506000652 | 8 | 178 | 3.2 | 4.8 | 0.00 | 0.00 | 0.00 | 79 | 1010.5 |
| 20260505235652 | 8 | 147 | 0.0 | 0.0 | 0.00 | 0.00 | 0.00 | 80 | 1010.5 |
| 20260505234652 | 8 | 192 | 1.6 | 6.4 | 0.00 | 0.00 | 0.00 | 79 | 1010.5 |
| 20260505233652 | 8 | 151 | 4.8 | 8.0 | 0.00 | 0.00 | 0.00 | 79 | 1010.4 |
| 20260505232652 | 8 | 132 | 3.2 | 3.2 | 0.00 | 0.00 | 0.00 | 79 | 1010.5 |
| 20260505231652 | 8 | 153 | 6.4 | 6.4 | 0.00 | 0.00 | 0.00 | 79 | 1010.6 |
| 20260505230652 | 8 | 151 | 3.2 | 8.0 | 0.00 | 0.00 | 0.00 | 79 | 1010.6 |
| 20260505225652 | 8 | 146 | 6.4 | 9.7 | 0.00 | 0.00 | 0.00 | 79 | 1010.6 |
| 20260505224652 | 8 | 144 | 9.7 | 11.3 | 0.00 | 0.00 | 0.00 | 78 | 1010.7 |
| 20260505223652 | 8 | 130 | 3.2 | 4.8 | 0.00 | 0.00 | 0.00 | 77 | 1010.8 |
| 20260505222652 | 8 | 153 | 1.6 | 1.6 | 0.00 | 0.00 | 0.00 | 77 | 1010.7 |
| 20260505221652 | 8 | 151 | 3.2 | 3.2 | 0.00 | 0.00 | 0.00 | 76 | 1010.7 |
| 20260505220652 | 8 | 149 | 4.8 | 4.8 | 0.00 | 0.00 | 0.00 | 75 | 1010.8 |